This is the latest recevied weather packets stored in our database for station/object K2YYD-2. If no packets are shown the sender has not sent any weather packets the latest 10 day(s).
| Time | Temp. | Humidity | Pressure | Rain* | Wind** | Luminosity | Snow |
|---|---|---|---|---|---|---|---|
| 1787491869 | 21.67° C | 97% | 1006.2 hPa | 0 mm | - | 121 W/m² | - |
| 1787491756 | 21.11° C | 98% | 1006.2 hPa | 0 mm | - | 140 W/m² | - |
| 1787491630 | 21.11° C | 97% | 1006.2 hPa | 0.51 mm | - | 190 W/m² | - |
| 1787491518 | 21.11° C | 97% | 1006.2 hPa | 0.51 mm | - | 197 W/m² | - |
| 1787491390 | 21.11° C | 97% | 1006.2 hPa | 0.76 mm | - | 160 W/m² | - |
| 1787491270 | 21.11° C | 97% | 1006.2 hPa | 1.78 mm | - | 226 W/m² | - |
| 1787491156 | 21.11° C | 98% | 1006 hPa | 2.79 mm | - | 110 W/m² | - |
| 1787491052 | 21.11° C | 98% | 1006 hPa | 4.83 mm | - | 141 W/m² | - |
| 1787490918 | 21.11° C | 97% | 1005.9 hPa | 8.89 mm | - | 201 W/m² | - |
| 1787490790 | 20.56° C | 98% | 1005.8 hPa | 9.91 mm | - | 100 W/m² | - |
| 1787490670 | 20.56° C | 98% | 1005.8 hPa | 11.94 mm | - | 112 W/m² | - |
| 1787490556 | 20.56° C | 98% | 1005.8 hPa | 12.19 mm | - | 157 W/m² | - |
| 1787490430 | 20.56° C | 98% | 1005.8 hPa | 12.45 mm | - | 91 W/m² | - |
| 1787490311 | 20° C | 97% | 1005.8 hPa | 12.7 mm | - | 57 W/m² | - |
| 1787490190 | 20° C | 98% | 1005.8 hPa | 13.97 mm | - | 124 W/m² | - |
| 1787490070 | 20° C | 98% | 1005.7 hPa | 15.75 mm | - | 65 W/m² | - |
| 1787489956 | 20° C | 97% | 1005.5 hPa | 18.8 mm | - | 75 W/m² | - |
| 1787489831 | 20° C | 97% | 1005.4 hPa | 21.08 mm | - | 94 W/m² | - |
| 1787489718 | 20° C | 98% | 1005.4 hPa | 25.15 mm | - | 131 W/m² | - |
| 1787489590 | 19.44° C | 98% | 1005.5 hPa | 25.91 mm | - | 115 W/m² | - |
| 1787489471 | 19.44° C | 97% | 1005.4 hPa | 29.21 mm | - | 192 W/m² | - |
| 1787489356 | 19.44° C | 97% | 1005.4 hPa | 31.75 mm | - | 91 W/m² | - |
| 1787489230 | 19.44° C | 97% | 1005.3 hPa | 33.27 mm | - | 87 W/m² | - |
| 1787489118 | 19.44° C | 97% | 1005.3 hPa | 34.8 mm | - | 79 W/m² | - |
| 1787488990 | 19.44° C | 97% | 1005.2 hPa | 35.31 mm | - | 73 W/m² | - |
* Rain latest hour (hover to see other rain measurements)
** Current wind speed in m/s (hover to see current wind gust speed)